Location: Newark
(43.4306°N, 0.3089°E)
Time: 01:32:32
(UTC+00:00)

S-56A Canister/Altair - Pass Details

Date: 25 August 2019
Orbit: 633 x 2499 km, 38.9° (Epoch: 22 October)

Event Time Altitude Azimuth Distance (km) Brightness Sun altitude
Rises 22:32:53 0° 264° (W) 3,058 10.9 -32.4°
Enters shadow 22:34:26 - 261° (W) 2,429 10.3 -32.5°
Reaches altitude 10° 22:35:22 10° 259° (WSW) 2,055 - -32.6°
Maximum altitude 22:39:42 47° 185° (S) 837 - -32.9°
Drops below altitude 10° 22:44:09 10° 111° (ESE) 2,113 - -33.2°
Sets 22:46:44 0° 106° (ESE) 3,156 - -33.4°
